CW7200 Weather Reports


Display with metric or nautical units.
time (UTC)temp
F
wind
direction
speed
MPH
gust
MPH
rain 1hr
in
rain 24hr
in
rain mn
in
humidity
%
barometer
mb
20191208110216 47 309 6.0 15.0 0.00 0.00 0.00 73 1015.1
20191208105316 47 303 7.0 10.0 0.00 0.00 0.00 73 1015.4
20191208104416 47 304 7.0 12.0 0.00 0.00 0.00 73 1015.6
20191208103516 46 309 6.0 12.0 0.00 0.00 0.00 73 1015.7
20191208102616 46 309 5.0 10.0 0.00 0.00 0.00 73 1015.7
20191208101716 46 312 5.0 10.0 0.00 0.00 0.00 72 1015.9
20191208100816 46 313 5.0 12.0 0.00 0.00 0.00 72 1016.0
20191208095916 46 321 5.0 11.0 0.00 0.00 0.00 72 1016.1
20191208095016 45 313 5.0 10.0 0.00 0.00 0.00 72 1016.3
20191208094116 45 310 6.0 10.0 0.00 0.00 0.00 71 1016.4
20191208093216 44 302 6.0 10.0 0.00 0.00 0.00 73 1016.6
20191208092316 44 309 6.0 9.0 0.00 0.00 0.00 72 1016.7
20191208091416 43 306 6.0 10.0 0.00 0.00 0.00 72 1016.9
20191208090516 43 304 6.0 10.0 0.00 0.00 0.00 72 1016.9
20191208085616 42 304 6.0 10.0 0.00 0.00 0.00 72 1016.9
20191208084716 42 302 5.0 9.0 0.00 0.00 0.00 72 1017.0
20191208083816 42 307 5.0 9.0 0.00 0.00 0.00 73 1017.0
20191208082916 41 310 4.0 9.0 0.00 0.00 0.00 73 1017.0
20191208082016 41 313 4.0 7.0 0.00 0.00 0.00 74 1017.0
20191208081116 41 309 3.0 7.0 0.00 0.00 0.00 73 1016.9
20191208080216 41 312 3.0 6.0 0.00 0.00 0.00 70 1016.8
20191208075316 40 317 3.0 9.0 0.00 0.00 0.00 71 1017.0
20191208074416 40 304 1.0 7.0 0.00 0.00 0.00 71 1016.8
20191208073516 40 314 2.0 5.0 0.00 0.00 0.00 71 1017.0
20191208072616 39 329 3.0 7.0 0.00 0.00 0.00 71 1016.9
20191208071716 39 343 2.0 8.0 0.00 0.00 0.00 72 1016.8
20191208070816 37 334 1.0 5.0 0.00 0.00 0.00 73 1016.9
20191208065916 37 321 1.0 5.0 0.00 0.00 0.00 73 1016.9
20191208065016 37 311 4.0 5.0 0.00 0.00 0.00 74 1016.8
20191208064116 38 310 5.0 8.0 0.00 0.00 0.00 73 1016.9
20191208063216 38 317 5.0 9.0 0.00 0.00 0.00 73 1017.0
20191208062316 38 327 4.0 8.0 0.00 0.00 0.00 74 1016.8
20191208061416 37 326 4.0 8.0 0.00 0.00 0.00 74 1016.9
20191208060516 36 316 2.0 7.0 0.00 0.00 0.00 76 1016.9
20191208055616 37 324 3.0 4.0 0.00 0.00 0.00 74 1017.0
20191208054716 38 342 4.0 8.0 0.00 0.00 0.00 73 1016.8
20191208053816 37 347 2.0 8.0 0.00 0.00 0.00 74 1017.0
20191208052916 37 337 4.0 7.0 0.00 0.00 0.00 75 1017.0
20191208052016 38 346 4.0 8.0 0.00 0.00 0.00 75 1017.0
20191208051116 37 346 2.0 7.0 0.00 0.00 0.00 76 1016.9
20191208050217 37 335 2.0 5.0 0.00 0.00 0.00 77 1017.0
20191208045316 37 340 3.0 5.0 0.00 0.00 0.00 77 1017.1
20191208044416 37 344 4.0 7.0 0.00 0.00 0.00 77 1017.1
20191208043516 37 346 4.0 7.0 0.00 0.00 0.00 78 1017.4
20191208042616 37 345 3.0 7.0 0.00 0.00 0.00 80 1017.5
20191208041716 36 330 3.0 6.0 0.00 0.00 0.00 83 1017.5
20191208040816 35 328 3.0 6.0 0.00 0.00 0.00 86 1017.6
20191208035916 33 318 2.0 6.0 0.00 0.00 0.00 91 1017.7
20191208035016 31 311 1.0 5.0 0.00 0.00 0.00 92 1017.7
20191208034116 29 310 0.0 2.0 0.00 0.00 0.00 91 1017.8
20191208033216 28 0 0.0 0.0 0.00 0.00 0.00 91 1017.9
20191208032316 29 0 0.0 0.0 0.00 0.00 0.00 91 1017.9
20191208031416 29 0 0.0 0.0 0.00 0.00 0.00 91 1017.9
20191208030516 29 0 0.0 0.0 0.00 0.00 0.00 91 1017.9
20191208025616 29 0 0.0 0.0 0.00 0.00 0.00 91 1018.1
20191208024716 29 0 0.0 0.0 0.00 0.00 0.00 91 1018.1
20191208023816 29 0 0.0 0.0 0.00 0.00 0.00 91 1018.1
20191208022916 28 0 0.0 0.0 0.00 0.00 0.00 91 1018.1
20191208022016 28 0 0.0 0.0 0.00 0.00 0.00 91 1018.2
20191208021117 28 0 0.0 0.0 0.00 0.00 0.00 91 1018.3
20191208020216 28 0 0.0 0.0 0.00 0.00 0.00 91 1018.2
20191208015316 27 0 0.0 0.0 0.00 0.00 0.00 91 1018.2
20191208014416 27 0 0.0 0.0 0.00 0.00 0.00 91 1018.2
20191208013516 27 0 0.0 0.0 0.00 0.00 0.00 91 1018.3
20191208012616 27 0 0.0 0.0 0.00 0.00 0.00 91 1018.3
20191208011716 27 0 0.0 0.0 0.00 0.00 0.00 91 1018.3
20191208010816 27 0 0.0 0.0 0.00 0.00 0.00 91 1018.5
20191208005916 27 0 0.0 0.0 0.00 0.00 0.00 91 1018.3
20191208005016 27 0 0.0 0.0 0.00 0.00 0.00 91 1018.1
20191208004116 27 0 0.0 0.0 0.00 0.00 0.00 91 1018.2
20191208003216 27 0 0.0 0.0 0.00 0.00 0.00 91 1018.3
20191208002316 27 0 0.0 0.0 0.00 0.00 0.00 90 1018.2
20191208001416 27 0 0.0 0.0 0.00 0.00 0.00 90 1018.3
20191208000516 27 0 0.0 0.0 0.00 0.00 0.00 90 1018.2
20191207235616 27 0 0.0 0.0 0.00 0.00 0.00 90 1018.2
20191207234717 27 0 0.0 0.0 0.00 0.00 0.00 90 1018.3
20191207233816 27 0 0.0 0.0 0.00 0.00 0.00 90 1018.3
20191207232916 28 0 0.0 0.0 0.00 0.00 0.00 90 1018.2
20191207232016 28 0 0.0 0.0 0.00 0.00 0.00 90 1018.2
20191207231116 28 0 0.0 0.0 0.00 0.00 0.00 90 1018.4
20191207230216 28 0 0.0 0.0 0.00 0.00 0.00 90 1018.5
20191207225316 28 0 0.0 0.0 0.00 0.00 0.00 90 1018.5
20191207224416 28 0 0.0 0.0 0.00 0.00 0.00 89 1018.7
20191207223516 28 0 0.0 0.0 0.00 0.00 0.00 89 1018.8
20191207222616 29 0 0.0 0.0 0.00 0.00 0.00 88 1018.7
20191207221716 30 0 0.0 0.0 0.00 0.00 0.00 87 1018.7
20191207220816 33 0 0.0 0.0 0.00 0.00 0.00 86 1018.6
20191207215916 34 0 0.0 0.0 0.00 0.00 0.00 89 1018.4
20191207215016 33 0 0.0 0.0 0.00 0.00 0.00 89 1018.2
20191207214116 33 323 0.0 0.0 0.00 0.00 0.00 90 1018.2
20191207213216 33 0 0.0 0.0 0.00 0.00 0.00 92 1018.2
20191207212321 32 0 0.0 0.0 0.00 0.00 0.00 93 1018.2
20191207211416 32 0 0.0 0.0 0.00 0.00 0.00 93 1018.2
20191207210516 31 0 0.0 0.0 0.00 0.00 0.00 93 1018.1
20191207205616 30 0 0.0 0.0 0.00 0.00 0.00 92 1018.1
20191207204717 29 357 0.0 2.0 0.00 0.00 0.00 92 1018.2
20191207203816 28 0 0.0 0.0 0.00 0.00 0.00 92 1018.2
20191207202916 28 0 0.0 0.0 0.00 0.00 0.00 92 1018.2
20191207202016 28 0 0.0 0.0 0.00 0.00 0.00 92 1018.3
20191207201116 28 0 0.0 0.0 0.00 0.00 0.00 92 1018.2
20191207200216 28 0 0.0 0.0 0.00 0.00 0.00 92 1018.4
20191207195316 28 0 0.0 0.0 0.00 0.00 0.00 92 1018.4
20191207194416 28 0 0.0 0.0 0.00 0.00 0.00 92 1018.3
20191207193516 28 0 0.0 0.0 0.00 0.00 0.00 92 1018.2
20191207192616 29 0 0.0 0.0 0.00 0.00 0.00 92 1018.1
20191207191716 29 0 0.0 0.0 0.00 0.00 0.00 92 1018.2
20191207190816 29 0 0.0 0.0 0.00 0.00 0.00 92 1018.1
20191207185916 29 0 0.0 0.0 0.00 0.00 0.00 92 1018.0
20191207185016 30 0 0.0 0.0 0.00 0.00 0.00 92 1018.0
20191207184116 30 0 0.0 0.0 0.00 0.00 0.00 92 1018.1
20191207183216 31 354 0.0 3.0 0.00 0.00 0.00 92 1018.0
20191207182316 30 0 0.0 0.0 0.00 0.00 0.00 92 1017.9
20191207181416 30 0 0.0 0.0 0.00 0.00 0.00 92 1017.9
20191207180516 30 0 0.0 0.0 0.00 0.00 0.00 92 1017.9
20191207175616 30 0 0.0 0.0 0.00 0.00 0.00 92 1017.9
20191207174716 30 0 0.0 0.0 0.00 0.00 0.00 92 1017.6
20191207173816 30 0 0.0 0.0 0.00 0.00 0.00 92 1017.5
20191207172916 30 0 0.0 0.0 0.00 0.00 0.00 92 1017.5
20191207172016 31 0 0.0 0.0 0.00 0.00 0.00 92 1017.5
20191207171116 31 0 0.0 0.0 0.00 0.00 0.00 92 1017.3
20191207170216 31 0 0.0 0.0 0.00 0.00 0.00 92 1017.3
20191207165316 31 0 0.0 0.0 0.00 0.00 0.00 92 1017.4
20191207164416 30 0 0.0 0.0 0.00 0.00 0.00 92 1017.3
20191207163516 30 0 0.0 0.0 0.00 0.00 0.00 92 1017.2
20191207162616 31 0 0.0 0.0 0.00 0.00 0.00 92 1017.2
20191207161716 31 0 0.0 0.0 0.00 0.00 0.00 92 1017.1
20191207160816 31 0 0.0 0.0 0.00 0.00 0.00 92 1017.1
20191207155916 31 0 0.0 0.0 0.00 0.00 0.00 92 1017.0
20191207155016 31 0 0.0 0.0 0.00 0.00 0.00 92 1017.1
20191207154117 31 0 0.0 0.0 0.00 0.00 0.00 92 1017.0
20191207153216 31 0 0.0 0.0 0.00 0.00 0.00 92 1016.9
20191207152316 32 0 0.0 0.0 0.00 0.00 0.00 92 1016.8
20191207151416 31 0 0.0 0.0 0.00 0.00 0.00 92 1016.8
20191207150516 32 0 0.0 0.0 0.00 0.00 0.00 92 1016.7
20191207145616 32 0 0.0 0.0 0.00 0.00 0.00 92 1016.6
20191207144716 32 0 0.0 0.0 0.00 0.00 0.00 92 1016.5
20191207143816 32 0 0.0 0.0 0.00 0.00 0.00 92 1016.4
20191207142916 33 0 0.0 0.0 0.00 0.00 0.00 92 1016.3
20191207142016 33 0 0.0 0.0 0.00 0.00 0.00 92 1016.2
20191207141116 33 0 0.0 0.0 0.00 0.00 0.00 93 1016.0
20191207140216 34 0 0.0 0.0 0.00 0.00 0.00 93 1015.8
20191207135316 34 0 0.0 0.0 0.00 0.00 0.00 93 1015.5
20191207134416 34 0 0.0 0.0 0.00 0.00 0.00 93 1015.3
20191207133517 35 0 0.0 0.0 0.00 0.00 0.00 93 1015.2
20191207132616 35 0 0.0 0.0 0.00 0.00 0.00 93 1015.2
20191207131716 34 0 0.0 0.0 0.00 0.00 0.00 93 1015.2
20191207130816 34 0 0.0 0.0 0.00 0.00 0.00 93 1015.3
20191207125916 33 0 0.0 0.0 0.00 0.00 0.00 93 1015.2
20191207125016 32 0 0.0 0.0 0.00 0.00 0.00 92 1015.4
20191207124116 31 0 0.0 0.0 0.00 0.00 0.00 92 1015.3
20191207123216 31 0 0.0 0.0 0.00 0.00 0.00 92 1015.3
20191207122316 31 0 0.0 0.0 0.00 0.00 0.00 92 1015.4
20191207121416 31 0 0.0 0.0 0.00 0.00 0.00 92 1015.3
20191207120516 30 0 0.0 0.0 0.00 0.00 0.00 92 1015.4
20191207115616 30 0 0.0 0.0 0.00 0.00 0.00 92 1015.5
20191207114716 30 0 0.0 0.0 0.00 0.00 0.00 92 1015.6
20191207113816 30 0 0.0 0.0 0.00 0.00 0.00 92 1015.8
20191207112916 30 0 0.0 0.0 0.00 0.00 0.00 92 1015.8
20191207112016 30 0 0.0 0.0 0.00 0.00 0.00 92 1015.9
20191207111116 29 0 0.0 0.0 0.00 0.00 0.00 92 1016.1